Precipitable_Water
0.60 0.59 0.58 0.57 0.54 0.52 0.51 0.50 0.49 0.47 0.47 0.48 0.47 0.47 0.47 0.47 0.46 0.46 0.47 0.47 0.48 0.50 0.50 0.50 0.50 0.49 0.48 0.48 0.48 0.47 0.46 0.35 0.27 0.23 0.22 0.20 0.22 0.24 0.25 0.26 0.35 0.38 0.39 0.36 0.31 0.25 0.18 0.18 0.17 0.21 0.20 0.21 0.20 0.19 0.22 0.22 0.23 0.19 0.15 0.13 0.12 0.12 0.11 0.14 0.16 0.19 0.19 0.17 0.18 0.19 0.22 0.28 0.27 0.37 0.44 0.51 0.54 0.53 0.55 0.55 0.66 0.72 0.68 0.74 0.81 0.90 0.97 1.06
0.59 0.59 0.56 0.55 0.53 0.52 0.51 0.49 0.49 0.48 0.47 0.47 0.47 0.46 0.46 0.46 0.46 0.46 0.47 0.48 0.49 0.49 0.49 0.50 0.49 0.49 0.48 0.48 0.48 0.48 0.43 0.33 0.24 0.23 0.20 0.23 0.25 0.25 0.25 0.28 0.37 0.41 0.40 0.33 0.27 0.22 0.17 0.16 0.17 0.19 0.18 0.18 0.22 0.18 0.20 0.18 0.22 0.16 0.15 0.14 0.11 0.13 0.13 0.17 0.21 0.21 0.19 0.18 0.20 0.21 0.22 0.29 0.33 0.40 0.46 0.43 0.46 0.47 0.44 0.52 0.62 0.61 0.68 0.77 0.84 0.91 0.93 0.99
0.56 0.57 0.56 0.54 0.54 0.51 0.51 0.49 0.49 0.48 0.47 0.46 0.45 0.45 0.45 0.45 0.45 0.47 0.48 0.49 0.49 0.49 0.49 0.49 0.48 0.48 0.47 0.47 0.47 0.48 0.39 0.26 0.26 0.18 0.25 0.31 0.29 0.27 0.25 0.29 0.35 0.39 0.36 0.32 0.29 0.25 0.19 0.17 0.18 0.18 0.18 0.17 0.19 0.17 0.19 0.17 0.19 0.18 0.15 0.13 0.12 0.15 0.16 0.19 0.23 0.22 0.22 0.21 0.20 0.21 0.23 0.29 0.38 0.38 0.50 0.40 0.40 0.42 0.38 0.44 0.53 0.52 0.52 0.64 0.79 0.88 0.91 0.92
0.54 0.54 0.55 0.53 0.51 0.50 0.50 0.50 0.49 0.47 0.47 0.46 0.45 0.45 0.44 0.45 0.46 0.46 0.47 0.48 0.48 0.48 0.48 0.48 0.47 0.47 0.46 0.46 0.47 0.45 0.35 0.28 0.19 0.27 0.36 0.40 0.30 0.27 0.26 0.31 0.34 0.37 0.41 0.37 0.29 0.26 0.21 0.20 0.19 0.18 0.17 0.16 0.18 0.18 0.16 0.18 0.16 0.18 0.16 0.13 0.14 0.16 0.16 0.22 0.24 0.24 0.23 0.22 0.21 0.21 0.25 0.31 0.38 0.42 0.46 0.46 0.41 0.42 0.46 0.49 0.39 0.43 0.53 0.63 0.75 0.82 0.88 0.81
0.52 0.52 0.51 0.51 0.50 0.51 0.53 0.54 0.52 0.51 0.48 0.46 0.45 0.44 0.44 0.43 0.45 0.46 0.46 0.47 0.47 0.47 0.47 0.47 0.45 0.45 0.45 0.45 0.45 0.43 0.33 0.20 0.22 0.34 0.36 0.42 0.32 0.27 0.30 0.33 0.36 0.41 0.40 0.34 0.27 0.24 0.23 0.20 0.17 0.17 0.16 0.13 0.16 0.16 0.15 0.18 0.19 0.18 0.16 0.16 0.16 0.17 0.17 0.23 0.25 0.24 0.23 0.23 0.21 0.22 0.26 0.31 0.39 0.44 0.45 0.45 0.35 0.36 0.39 0.42 0.47 0.49 0.55 0.60 0.68 0.78 0.81 0.76
0.50 0.50 0.50 0.52 0.56 0.58 0.58 0.58 0.57 0.55 0.52 0.48 0.47 0.46 0.45 0.45 0.44 0.45 0.45 0.45 0.45 0.46 0.45 0.44 0.44 0.42 0.43 0.43 0.42 0.40 0.30 0.15 0.32 0.37 0.50 0.42 0.34 0.32 0.34 0.37 0.43 0.41 0.35 0.29 0.25 0.22 0.19 0.18 0.16 0.15 0.15 0.14 0.14 0.13 0.15 0.16 0.19 0.14 0.16 0.16 0.16 0.17 0.18 0.24 0.24 0.24 0.23 0.22 0.21 0.20 0.26 0.31 0.34 0.38 0.46 0.42 0.35 0.40 0.42 0.48 0.50 0.56 0.56 0.62 0.67 0.73 0.71 0.68
0.50 0.53 0.56 0.59 0.60 0.60 0.59 0.59 0.58 0.57 0.55 0.53 0.50 0.48 0.47 0.46 0.45 0.45 0.45 0.44 0.44 0.44 0.42 0.42 0.42 0.42 0.41 0.42 0.43 0.41 0.28 0.28 0.36 0.43 0.52 0.46 0.39 0.36 0.39 0.42 0.42 0.38 0.34 0.27 0.24 0.20 0.18 0.18 0.17 0.16 0.16 0.14 0.15 0.14 0.16 0.16 0.18 0.16 0.14 0.16 0.16 0.18 0.20 0.24 0.23 0.24 0.23 0.22 0.21 0.22 0.24 0.26 0.30 0.31 0.39 0.34 0.40 0.39 0.42 0.49 0.58 0.66 0.72 0.72 0.66 0.66 0.62 0.60
0.56 0.58 0.60 0.60 0.60 0.60 0.59 0.59 0.58 0.57 0.56 0.54 0.53 0.50 0.49 0.47 0.46 0.45 0.44 0.44 0.42 0.42 0.42 0.42 0.42 0.42 0.42 0.36 0.35 0.31 0.29 0.26 0.36 0.48 0.53 0.47 0.46 0.40 0.40 0.39 0.35 0.35 0.31 0.26 0.21 0.17 0.19 0.18 0.17 0.21 0.17 0.15 0.17 0.15 0.17 0.17 0.18 0.15 0.15 0.17 0.18 0.20 0.23 0.23 0.23 0.23 0.23 0.23 0.23 0.23 0.22 0.23 0.24 0.28 0.34 0.32 0.37 0.36 0.39 0.50 0.59 0.65 0.69 0.73 0.66 0.64 0.66 0.62
0.59 0.60 0.61 0.61 0.61 0.60 0.60 0.59 0.60 0.59 0.58 0.56 0.54 0.52 0.50 0.47 0.46 0.45 0.44 0.44 0.44 0.43 0.42 0.42 0.41 0.42 0.47 0.43 0.35 0.26 0.23 0.36 0.41 0.44 0.45 0.38 0.34 0.33 0.33 0.30 0.32 0.31 0.27 0.23 0.20 0.19 0.20 0.19 0.21 0.23 0.18 0.17 0.20 0.17 0.20 0.16 0.14 0.17 0.18 0.19 0.20 0.20 0.22 0.23 0.23 0.23 0.23 0.23 0.24 0.22 0.22 0.23 0.25 0.28 0.27 0.32 0.36 0.40 0.43 0.48 0.57 0.62 0.64 0.64 0.64 0.66 0.63 0.59
0.61 0.62 0.62 0.62 0.62 0.61 0.61 0.61 0.61 0.61 0.60 0.59 0.56 0.53 0.50 0.48 0.45 0.44 0.44 0.43 0.44 0.44 0.42 0.42 0.42 0.41 0.41 0.36 0.31 0.22 0.28 0.42 0.40 0.38 0.35 0.28 0.25 0.25 0.25 0.26 0.24 0.23 0.19 0.17 0.18 0.22 0.24 0.24 0.25 0.26 0.25 0.21 0.22 0.19 0.21 0.17 0.17 0.19 0.19 0.20 0.19 0.20 0.22 0.23 0.22 0.23 0.24 0.24 0.24 0.22 0.22 0.23 0.25 0.25 0.22 0.31 0.36 0.39 0.41 0.46 0.55 0.57 0.58 0.62 0.64 0.67 0.67 0.59
0.61 0.62 0.63 0.63 0.62 0.61 0.61 0.61 0.62 0.62 0.62 0.62 0.60 0.57 0.51 0.49 0.46 0.44 0.43 0.43 0.42 0.42 0.42 0.42 0.42 0.41 0.33 0.35 0.27 0.22 0.38 0.38 0.39 0.34 0.29 0.25 0.23 0.21 0.19 0.19 0.19 0.16 0.16 0.18 0.23 0.28 0.28 0.28 0.29 0.28 0.25 0.20 0.22 0.20 0.20 0.19 0.22 0.21 0.21 0.20 0.19 0.20 0.22 0.22 0.22 0.23 0.24 0.23 0.24 0.23 0.22 0.23 0.24 0.23 0.22 0.27 0.35 0.39 0.38 0.44 0.50 0.55 0.58 0.61 0.65 0.66 0.64 0.59
0.61 0.62 0.63 0.63 0.62 0.62 0.62 0.62 0.62 0.63 0.64 0.65 0.65 0.61 0.57 0.50 0.47 0.45 0.45 0.43 0.42 0.42 0.42 0.42 0.42 0.41 0.39 0.32 0.31 0.32 0.42 0.37 0.39 0.35 0.29 0.26 0.25 0.27 0.27 0.26 0.25 0.23 0.24 0.25 0.26 0.28 0.30 0.30 0.30 0.27 0.20 0.26 0.19 0.22 0.20 0.23 0.22 0.21 0.21 0.17 0.17 0.19 0.19 0.22 0.21 0.23 0.23 0.23 0.24 0.23 0.21 0.20 0.20 0.19 0.24 0.31 0.38 0.39 0.38 0.41 0.48 0.52 0.58 0.61 0.64 0.64 0.60 0.56
0.59 0.61 0.62 0.61 0.61 0.61 0.61 0.62 0.63 0.63 0.64 0.66 0.68 0.68 0.64 0.56 0.49 0.47 0.46 0.44 0.43 0.42 0.41 0.42 0.43 0.45 0.36 0.28 0.33 0.39 0.41 0.41 0.38 0.37 0.33 0.31 0.32 0.32 0.31 0.31 0.29 0.30 0.30 0.27 0.27 0.30 0.31 0.30 0.29 0.24 0.27 0.25 0.23 0.19 0.23 0.24 0.22 0.22 0.20 0.18 0.16 0.16 0.17 0.21 0.23 0.23 0.22 0.23 0.24 0.22 0.16 0.17 0.19 0.21 0.25 0.34 0.36 0.39 0.38 0.40 0.46 0.51 0.56 0.59 0.61 0.61 0.59 0.57
0.55 0.58 0.59 0.59 0.60 0.60 0.60 0.61 0.61 0.63 0.65 0.66 0.66 0.67 0.70 0.65 0.57 0.49 0.48 0.43 0.45 0.45 0.44 0.43 0.45 0.45 0.38 0.27 0.36 0.43 0.44 0.44 0.40 0.36 0.33 0.33 0.30 0.29 0.33 0.33 0.33 0.32 0.33 0.29 0.30 0.32 0.31 0.32 0.30 0.28 0.30 0.25 0.22 0.27 0.23 0.22 0.22 0.18 0.19 0.18 0.16 0.15 0.15 0.20 0.21 0.22 0.21 0.24 0.23 0.22 0.16 0.17 0.20 0.21 0.28 0.34 0.37 0.35 0.33 0.38 0.43 0.49 0.53 0.58 0.60 0.59 0.54 0.53
0.49 0.53 0.55 0.57 0.57 0.58 0.58 0.58 0.59 0.60 0.64 0.66 0.65 0.64 0.68 0.71 0.63 0.54 0.48 0.46 0.46 0.45 0.46 0.48 0.50 0.40 0.30 0.29 0.40 0.46 0.52 0.50 0.39 0.36 0.36 0.32 0.29 0.27 0.28 0.31 0.31 0.31 0.32 0.32 0.30 0.34 0.34 0.32 0.30 0.25 0.23 0.27 0.26 0.22 0.20 0.19 0.20 0.19 0.15 0.14 0.16 0.15 0.16 0.19 0.22 0.22 0.20 0.23 0.24 0.22 0.17 0.17 0.20 0.21 0.27 0.33 0.35 0.35 0.31 0.35 0.39 0.44 0.49 0.55 0.57 0.55 0.51 0.49
0.43 0.46 0.50 0.53 0.54 0.54 0.55 0.55 0.56 0.57 0.62 0.65 0.64 0.62 0.65 0.74 0.66 0.57 0.52 0.50 0.47 0.45 0.44 0.37 0.38 0.36 0.28 0.24 0.35 0.51 0.46 0.35 0.34 0.39 0.39 0.35 0.31 0.26 0.28 0.29 0.31 0.31 0.32 0.30 0.33 0.33 0.33 0.31 0.25 0.25 0.24 0.24 0.21 0.19 0.18 0.17 0.17 0.19 0.17 0.15 0.15 0.16 0.16 0.17 0.21 0.23 0.23 0.22 0.22 0.20 0.17 0.18 0.18 0.21 0.26 0.31 0.32 0.32 0.30 0.32 0.34 0.38 0.44 0.50 0.52 0.51 0.48 0.47
0.41 0.42 0.44 0.47 0.49 0.50 0.51 0.52 0.53 0.55 0.60 0.62 0.62 0.61 0.64 0.71 0.69 0.60 0.57 0.54 0.48 0.49 0.43 0.29 0.37 0.40 0.22 0.33 0.43 0.35 0.33 0.37 0.42 0.38 0.38 0.36 0.33 0.30 0.28 0.27 0.26 0.26 0.29 0.29 0.30 0.30 0.30 0.25 0.30 0.24 0.25 0.20 0.20 0.19 0.15 0.15 0.15 0.15 0.21 0.18 0.19 0.17 0.18 0.16 0.22 0.25 0.26 0.24 0.21 0.21 0.18 0.18 0.19 0.20 0.24 0.29 0.32 0.30 0.29 0.30 0.34 0.36 0.40 0.47 0.50 0.50 0.47 0.45
0.38 0.39 0.41 0.42 0.43 0.45 0.47 0.50 0.51 0.53 0.59 0.60 0.58 0.61 0.64 0.66 0.69 0.64 0.58 0.54 0.51 0.48 0.46 0.48 0.41 0.29 0.23 0.30 0.28 0.30 0.39 0.37 0.37 0.36 0.38 0.38 0.36 0.32 0.28 0.25 0.26 0.26 0.25 0.24 0.27 0.24 0.26 0.22 0.25 0.18 0.19 0.18 0.18 0.16 0.13 0.12 0.14 0.15 0.17 0.17 0.18 0.21 0.20 0.20 0.19 0.24 0.26 0.25 0.22 0.21 0.18 0.17 0.18 0.19 0.22 0.26 0.28 0.30 0.28 0.31 0.34 0.36 0.38 0.43 0.48 0.48 0.46 0.44
0.37 0.37 0.39 0.41 0.42 0.43 0.44 0.46 0.49 0.53 0.58 0.58 0.59 0.64 0.71 0.66 0.63 0.62 0.49 0.47 0.35 0.28 0.20 0.24 0.23 0.19 0.17 0.29 0.37 0.39 0.39 0.40 0.38 0.35 0.30 0.31 0.33 0.32 0.30 0.29 0.26 0.23 0.20 0.19 0.21 0.21 0.24 0.21 0.22 0.17 0.14 0.16 0.15 0.16 0.15 0.16 0.17 0.18 0.19 0.18 0.18 0.17 0.19 0.19 0.22 0.26 0.26 0.22 0.20 0.19 0.17 0.17 0.18 0.18 0.20 0.23 0.28 0.28 0.29 0.34 0.37 0.39 0.40 0.43 0.46 0.48 0.45 0.43
0.37 0.38 0.38 0.39 0.40 0.41 0.42 0.44 0.47 0.54 0.57 0.52 0.52 0.53 0.54 0.37 0.34 0.34 0.47 0.43 0.31 0.29 0.29 0.30 0.31 0.35 0.35 0.35 0.36 0.42 0.47 0.40 0.31 0.31 0.32 0.35 0.30 0.29 0.27 0.26 0.24 0.23 0.19 0.17 0.19 0.21 0.25 0.17 0.15 0.15 0.16 0.18 0.19 0.19 0.19 0.20 0.20 0.22 0.22 0.20 0.19 0.19 0.20 0.23 0.24 0.27 0.28 0.22 0.20 0.20 0.18 0.17 0.17 0.19 0.20 0.22 0.25 0.27 0.29 0.31 0.34 0.37 0.39 0.41 0.44 0.46 0.46 0.45
0.37 0.37 0.38 0.38 0.39 0.40 0.41 0.44 0.51 0.54 0.56 0.52 0.47 0.41 0.27 0.28 0.21 0.20 0.28 0.29 0.34 0.35 0.31 0.33 0.34 0.35 0.33 0.39 0.41 0.40 0.34 0.33 0.35 0.30 0.29 0.36 0.30 0.25 0.22 0.22 0.19 0.16 0.18 0.20 0.18 0.26 0.22 0.15 0.14 0.18 0.20 0.20 0.20 0.23 0.25 0.25 0.24 0.22 0.21 0.21 0.20 0.20 0.19 0.23 0.23 0.27 0.29 0.21 0.19 0.22 0.19 0.17 0.18 0.20 0.21 0.24 0.23 0.22 0.24 0.27 0.31 0.35 0.40 0.42 0.44 0.46 0.48 0.49
0.36 0.37 0.37 0.38 0.40 0.41 0.45 0.49 0.52 0.55 0.57 0.52 0.45 0.34 0.37 0.41 0.46 0.49 0.39 0.23 0.29 0.35 0.36 0.37 0.39 0.36 0.41 0.41 0.43 0.44 0.41 0.32 0.32 0.33 0.34 0.32 0.28 0.22 0.22 0.19 0.17 0.15 0.19 0.19 0.19 0.17 0.15 0.13 0.18 0.22 0.24 0.24 0.24 0.24 0.25 0.23 0.23 0.24 0.21 0.22 0.20 0.20 0.22 0.23 0.24 0.28 0.29 0.23 0.21 0.23 0.19 0.19 0.20 0.21 0.23 0.23 0.23 0.24 0.25 0.25 0.27 0.29 0.35 0.39 0.42 0.46 0.49 0.49
0.37 0.36 0.37 0.39 0.41 0.45 0.49 0.52 0.55 0.57 0.53 0.45 0.40 0.42 0.40 0.49 0.56 0.57 0.49 0.35 0.29 0.38 0.35 0.34 0.31 0.32 0.33 0.40 0.42 0.46 0.31 0.29 0.27 0.32 0.33 0.32 0.28 0.26 0.23 0.20 0.18 0.17 0.17 0.18 0.14 0.14 0.12 0.16 0.24 0.26 0.26 0.24 0.24 0.26 0.25 0.25 0.25 0.22 0.22 0.20 0.18 0.21 0.19 0.18 0.24 0.27 0.28 0.25 0.23 0.24 0.22 0.23 0.24 0.25 0.24 0.25 0.25 0.26 0.28 0.27 0.27 0.29 0.29 0.33 0.38 0.42 0.43 0.43
0.37 0.37 0.38 0.41 0.43 0.45 0.51 0.53 0.55 0.53 0.47 0.45 0.42 0.42 0.51 0.57 0.57 0.54 0.44 0.29 0.27 0.33 0.35 0.35 0.33 0.31 0.30 0.31 0.42 0.38 0.29 0.31 0.29 0.28 0.36 0.31 0.27 0.28 0.24 0.22 0.20 0.19 0.18 0.19 0.18 0.15 0.15 0.20 0.26 0.26 0.26 0.24 0.22 0.24 0.22 0.21 0.20 0.23 0.22 0.21 0.20 0.22 0.25 0.23 0.23 0.26 0.28 0.28 0.28 0.25 0.22 0.22 0.25 0.24 0.24 0.26 0.29 0.27 0.28 0.28 0.29 0.30 0.32 0.34 0.37 0.41 0.44 0.43
0.37 0.37 0.39 0.43 0.43 0.47 0.50 0.53 0.43 0.42 0.47 0.46 0.42 0.49 0.55 0.58 0.60 0.57 0.40 0.36 0.36 0.33 0.48 0.38 0.39 0.35 0.41 0.50 0.49 0.36 0.36 0.34 0.32 0.34 0.35 0.31 0.28 0.25 0.23 0.24 0.21 0.18 0.19 0.21 0.20 0.18 0.19 0.24 0.27 0.24 0.24 0.25 0.23 0.21 0.23 0.22 0.19 0.22 0.25 0.25 0.26 0.27 0.26 0.26 0.26 0.23 0.21 0.20 0.25 0.24 0.18 0.17 0.22 0.23 0.24 0.27 0.28 0.27 0.30 0.28 0.28 0.29 0.32 0.34 0.35 0.37 0.42 0.45
0.35 0.37 0.38 0.41 0.44 0.46 0.51 0.37 0.38 0.44 0.41 0.35 0.39 0.46 0.51 0.54 0.59 0.58 0.43 0.32 0.20 0.30 0.37 0.28 0.44 0.34 0.50 0.39 0.44 0.41 0.38 0.28 0.34 0.37 0.36 0.35 0.35 0.27 0.26 0.22 0.22 0.18 0.20 0.20 0.19 0.19 0.19 0.25 0.27 0.24 0.24 0.24 0.25 0.23 0.26 0.26 0.23 0.22 0.26 0.31 0.30 0.28 0.27 0.25 0.24 0.23 0.18 0.16 0.24 0.28 0.19 0.17 0.22 0.22 0.24 0.26 0.27 0.27 0.29 0.29 0.30 0.32 0.34 0.35 0.35 0.36 0.39 0.42
0.35 0.36 0.37 0.37 0.41 0.47 0.34 0.27 0.39 0.38 0.30 0.34 0.42 0.47 0.53 0.56 0.60 0.55 0.42 0.25 0.20 0.34 0.34 0.40 0.36 0.33 0.38 0.35 0.38 0.37 0.20 0.23 0.30 0.35 0.35 0.37 0.29 0.30 0.21 0.19 0.20 0.20 0.21 0.22 0.18 0.17 0.22 0.23 0.24 0.27 0.25 0.25 0.25 0.23 0.27 0.28 0.25 0.23 0.32 0.33 0.32 0.28 0.25 0.25 0.24 0.24 0.21 0.25 0.26 0.25 0.23 0.19 0.18 0.22 0.26 0.28 0.27 0.27 0.28 0.29 0.30 0.31 0.32 0.33 0.35 0.36 0.37 0.40
0.35 0.35 0.36 0.37 0.35 0.41 0.33 0.40 0.33 0.29 0.30 0.37 0.46 0.50 0.53 0.60 0.68 0.64 0.40 0.15 0.15 0.38 0.30 0.35 0.38 0.40 0.36 0.34 0.37 0.30 0.28 0.30 0.24 0.28 0.35 0.36 0.32 0.28 0.23 0.20 0.19 0.19 0.20 0.18 0.11 0.15 0.19 0.19 0.21 0.22 0.23 0.23 0.24 0.28 0.31 0.32 0.28 0.29 0.33 0.33 0.30 0.28 0.27 0.26 0.25 0.23 0.24 0.22 0.18 0.22 0.26 0.19 0.18 0.22 0.27 0.28 0.25 0.25 0.25 0.26 0.27 0.29 0.31 0.31 0.32 0.33 0.35 0.37
0.33 0.35 0.36 0.36 0.37 0.40 0.43 0.34 0.32 0.30 0.40 0.46 0.46 0.48 0.58 0.66 0.64 0.51 0.29 0.13 0.27 0.30 0.40 0.30 0.42 0.37 0.34 0.35 0.31 0.32 0.30 0.31 0.24 0.29 0.33 0.34 0.33 0.28 0.22 0.23 0.22 0.22 0.22 0.20 0.16 0.17 0.18 0.18 0.21 0.23 0.22 0.22 0.28 0.31 0.34 0.34 0.28 0.33 0.35 0.34 0.31 0.29 0.28 0.27 0.24 0.22 0.23 0.20 0.16 0.19 0.23 0.17 0.17 0.21 0.23 0.24 0.22 0.22 0.24 0.26 0.28 0.30 0.30 0.30 0.30 0.30 0.31 0.33
0.33 0.33 0.35 0.36 0.35 0.37 0.37 0.42 0.35 0.45 0.48 0.44 0.42 0.46 0.59 0.58 0.48 0.30 0.21 0.12 0.31 0.23 0.30 0.35 0.31 0.29 0.30 0.26 0.27 0.29 0.27 0.29 0.28 0.28 0.29 0.27 0.29 0.30 0.27 0.27 0.24 0.22 0.20 0.22 0.20 0.19 0.19 0.21 0.26 0.23 0.21 0.24 0.28 0.33 0.35 0.35 0.34 0.35 0.31 0.26 0.24 0.23 0.22 0.23 0.23 0.21 0.19 0.15 0.16 0.19 0.22 0.19 0.15 0.19 0.21 0.19 0.20 0.22 0.24 0.25 0.27 0.29 0.30 0.30 0.29 0.29 0.29 0.30
0.32 0.33 0.34 0.36 0.25 0.32 0.33 0.25 0.31 0.38 0.39 0.39 0.42 0.50 0.55 0.49 0.31 0.20 0.12 0.18 0.30 0.26 0.28 0.27 0.25 0.26 0.22 0.22 0.20 0.24 0.23 0.24 0.24 0.24 0.23 0.25 0.24 0.26 0.25 0.23 0.26 0.22 0.20 0.20 0.18 0.19 0.19 0.19 0.19 0.21 0.26 0.25 0.28 0.27 0.32 0.34 0.34 0.32 0.28 0.25 0.22 0.20 0.21 0.19 0.19 0.20 0.14 0.13 0.17 0.20 0.20 0.21 0.14 0.17 0.20 0.23 0.25 0.26 0.26 0.25 0.26 0.27 0.27 0.28 0.29 0.29 0.30 0.31
0.35 0.35 0.36 0.34 0.34 0.40 0.23 0.21 0.30 0.42 0.41 0.42 0.40 0.40 0.42 0.25 0.29 0.15 0.15 0.32 0.18 0.22 0.20 0.22 0.23 0.20 0.18 0.20 0.18 0.19 0.18 0.21 0.21 0.21 0.20 0.21 0.20 0.19 0.21 0.18 0.19 0.15 0.15 0.16 0.16 0.19 0.18 0.18 0.19 0.19 0.27 0.24 0.24 0.23 0.24 0.28 0.31 0.29 0.26 0.24 0.18 0.16 0.16 0.14 0.16 0.13 0.13 0.13 0.18 0.21 0.21 0.17 0.15 0.16 0.21 0.25 0.26 0.27 0.28 0.28 0.27 0.27 0.28 0.29 0.30 0.30 0.30 0.32
0.38 0.40 0.41 0.43 0.46 0.41 0.40 0.40 0.43 0.43 0.45 0.42 0.31 0.36 0.23 0.18 0.13 0.19 0.19 0.21 0.17 0.24 0.22 0.25 0.21 0.19 0.18 0.17 0.16 0.18 0.19 0.15 0.20 0.19 0.19 0.20 0.18 0.19 0.21 0.20 0.21 0.19 0.14 0.18 0.16 0.16 0.16 0.19 0.19 0.19 0.19 0.24 0.23 0.19 0.19 0.20 0.23 0.25 0.23 0.21 0.18 0.14 0.14 0.12 0.14 0.16 0.16 0.19 0.22 0.20 0.24 0.16 0.18 0.20 0.25 0.26 0.29 0.30 0.31 0.31 0.31 0.30 0.30 0.30 0.31 0.32 0.32 0.32
0.38 0.44 0.41 0.50 0.53 0.51 0.50 0.52 0.47 0.47 0.44 0.38 0.24 0.18 0.15 0.13 0.13 0.30 0.22 0.21 0.20 0.25 0.24 0.22 0.22 0.20 0.19 0.15 0.16 0.17 0.14 0.17 0.17 0.17 0.18 0.16 0.16 0.15 0.18 0.20 0.21 0.19 0.19 0.19 0.15 0.16 0.12 0.13 0.17 0.18 0.15 0.22 0.21 0.20 0.20 0.20 0.21 0.23 0.25 0.22 0.18 0.16 0.14 0.12 0.14 0.13 0.14 0.16 0.19 0.25 0.19 0.17 0.16 0.18 0.27 0.30 0.32 0.33 0.34 0.33 0.32 0.32 0.31 0.32 0.34 0.35 0.34 0.34
0.39 0.43 0.48 0.55 0.57 0.54 0.54 0.51 0.48 0.47 0.41 0.32 0.19 0.11 0.08 0.11 0.19 0.19 0.18 0.20 0.21 0.23 0.22 0.25 0.20 0.19 0.18 0.18 0.19 0.18 0.16 0.14 0.18 0.17 0.16 0.15 0.14 0.15 0.16 0.17 0.19 0.19 0.19 0.14 0.17 0.16 0.15 0.15 0.19 0.23 0.23 0.24 0.22 0.25 0.26 0.24 0.23 0.24 0.24 0.25 0.20 0.18 0.20 0.15 0.17 0.16 0.16 0.16 0.16 0.19 0.18 0.22 0.21 0.29 0.32 0.31 0.32 0.31 0.33 0.32 0.31 0.30 0.31 0.31 0.31 0.33 0.35 0.36
0.42 0.43 0.47 0.43 0.51 0.55 0.57 0.55 0.50 0.42 0.31 0.22 0.14 0.09 0.08 0.15 0.17 0.23 0.19 0.23 0.22 0.19 0.20 0.23 0.21 0.18 0.16 0.16 0.19 0.17 0.20 0.14 0.16 0.15 0.15 0.15 0.17 0.16 0.20 0.20 0.20 0.21 0.18 0.15 0.18 0.14 0.16 0.14 0.20 0.22 0.24 0.23 0.23 0.24 0.24 0.24 0.16 0.22 0.22 0.19 0.20 0.25 0.21 0.19 0.19 0.20 0.19 0.16 0.14 0.19 0.18 0.21 0.26 0.28 0.30 0.30 0.29 0.29 0.30 0.30 0.30 0.30 0.30 0.30 0.30 0.32 0.34 0.36
0.31 0.42 0.40 0.46 0.51 0.54 0.55 0.52 0.48 0.36 0.28 0.20 0.10 0.08 0.19 0.22 0.24 0.24 0.22 0.20 0.21 0.21 0.19 0.15 0.17 0.16 0.16 0.15 0.15 0.17 0.17 0.17 0.15 0.12 0.11 0.17 0.15 0.19 0.20 0.22 0.25 0.24 0.25 0.20 0.17 0.20 0.14 0.15 0.20 0.19 0.19 0.24 0.26 0.25 0.24 0.24 0.24 0.22 0.18 0.21 0.27 0.29 0.25 0.19 0.14 0.17 0.16 0.13 0.13 0.16 0.14 0.17 0.18 0.17 0.27 0.27 0.27 0.27 0.28 0.28 0.29 0.29 0.30 0.29 0.30 0.32 0.34 0.35
0.32 0.33 0.43 0.41 0.45 0.46 0.50 0.49 0.43 0.34 0.26 0.19 0.11 0.15 0.30 0.18 0.24 0.21 0.23 0.22 0.22 0.21 0.17 0.15 0.16 0.18 0.15 0.15 0.15 0.17 0.18 0.14 0.14 0.13 0.10 0.15 0.14 0.26 0.22 0.22 0.26 0.24 0.26 0.27 0.19 0.19 0.19 0.13 0.16 0.19 0.20 0.23 0.25 0.25 0.23 0.26 0.27 0.22 0.21 0.30 0.20 0.19 0.17 0.21 0.18 0.13 0.13 0.12 0.13 0.15 0.17 0.17 0.18 0.19 0.24 0.25 0.25 0.26 0.27 0.28 0.27 0.27 0.28 0.28 0.29 0.31 0.34 0.37
0.31 0.30 0.32 0.35 0.42 0.41 0.43 0.46 0.41 0.31 0.23 0.15 0.18 0.16 0.26 0.28 0.24 0.20 0.22 0.23 0.23 0.20 0.17 0.17 0.16 0.17 0.17 0.15 0.16 0.18 0.17 0.13 0.14 0.12 0.09 0.12 0.11 0.20 0.21 0.24 0.23 0.26 0.28 0.26 0.22 0.23 0.23 0.15 0.16 0.22 0.21 0.24 0.23 0.22 0.17 0.21 0.26 0.27 0.27 0.25 0.27 0.22 0.20 0.19 0.19 0.20 0.18 0.14 0.14 0.14 0.17 0.15 0.21 0.21 0.23 0.23 0.25 0.26 0.27 0.27 0.27 0.27 0.28 0.28 0.28 0.30 0.32 0.34
0.24 0.20 0.25 0.37 0.40 0.40 0.45 0.41 0.32 0.27 0.18 0.12 0.20 0.20 0.26 0.23 0.22 0.21 0.23 0.23 0.21 0.20 0.19 0.18 0.18 0.16 0.16 0.16 0.16 0.14 0.16 0.14 0.12 0.12 0.10 0.12 0.11 0.20 0.19 0.24 0.21 0.24 0.26 0.28 0.25 0.30 0.22 0.23 0.15 0.21 0.25 0.24 0.18 0.21 0.19 0.21 0.20 0.21 0.22 0.21 0.22 0.22 0.25 0.22 0.22 0.19 0.17 0.15 0.15 0.14 0.13 0.15 0.20 0.24 0.25 0.24 0.24 0.25 0.25 0.25 0.27 0.27 0.28 0.29 0.29 0.31 0.32 0.34
0.31 0.21 0.27 0.38 0.37 0.39 0.38 0.30 0.24 0.21 0.19 0.23 0.25 0.23 0.22 0.22 0.23 0.23 0.24 0.24 0.23 0.27 0.22 0.20 0.19 0.16 0.17 0.15 0.15 0.16 0.13 0.13 0.11 0.10 0.11 0.11 0.11 0.10 0.20 0.19 0.22 0.20 0.24 0.23 0.23 0.26 0.22 0.22 0.18 0.20 0.20 0.21 0.22 0.26 0.26 0.25 0.25 0.23 0.22 0.21 0.22 0.20 0.19 0.16 0.16 0.21 0.19 0.16 0.14 0.13 0.12 0.16 0.22 0.29 0.27 0.26 0.26 0.26 0.25 0.25 0.25 0.27 0.27 0.28 0.29 0.31 0.33 0.34
0.17 0.12 0.22 0.39 0.38 0.36 0.28 0.18 0.19 0.24 0.19 0.16 0.17 0.21 0.20 0.25 0.23 0.24 0.24 0.24 0.22 0.21 0.25 0.21 0.21 0.19 0.18 0.16 0.16 0.15 0.13 0.12 0.12 0.11 0.12 0.10 0.16 0.15 0.20 0.24 0.21 0.21 0.17 0.16 0.20 0.28 0.26 0.24 0.21 0.19 0.20 0.22 0.25 0.30 0.31 0.30 0.29 0.27 0.25 0.23 0.25 0.24 0.23 0.19 0.14 0.17 0.20 0.20 0.20 0.19 0.16 0.17 0.28 0.31 0.30 0.28 0.28 0.28 0.27 0.27 0.25 0.26 0.28 0.29 0.31 0.33 0.35 0.36
0.16 0.14 0.29 0.38 0.39 0.33 0.24 0.17 0.19 0.17 0.16 0.19 0.23 0.22 0.24 0.22 0.21 0.23 0.22 0.23 0.20 0.22 0.21 0.19 0.18 0.16 0.18 0.16 0.16 0.14 0.14 0.12 0.12 0.11 0.13 0.14 0.16 0.20 0.23 0.24 0.24 0.22 0.20 0.19 0.20 0.25 0.29 0.19 0.17 0.19 0.22 0.25 0.28 0.29 0.31 0.30 0.28 0.25 0.25 0.26 0.24 0.22 0.23 0.22 0.21 0.22 0.20 0.21 0.19 0.19 0.16 0.19 0.28 0.31 0.30 0.30 0.30 0.29 0.29 0.28 0.27 0.28 0.29 0.30 0.31 0.32 0.34 0.34
0.17 0.19 0.23 0.35 0.36 0.30 0.21 0.14 0.14 0.16 0.17 0.21 0.20 0.20 0.24 0.22 0.20 0.20 0.19 0.20 0.18 0.17 0.17 0.17 0.17 0.18 0.16 0.18 0.16 0.13 0.14 0.10 0.14 0.13 0.13 0.16 0.15 0.24 0.24 0.24 0.26 0.23 0.22 0.24 0.17 0.26 0.16 0.19 0.16 0.14 0.14 0.16 0.19 0.22 0.24 0.27 0.26 0.23 0.22 0.23 0.24 0.24 0.24 0.24 0.23 0.24 0.18 0.19 0.19 0.17 0.13 0.18 0.27 0.30 0.29 0.29 0.30 0.30 0.30 0.31 0.31 0.28 0.30 0.31 0.32 0.33 0.34 0.35
0.19 0.22 0.25 0.25 0.30 0.28 0.19 0.22 0.19 0.17 0.18 0.17 0.18 0.17 0.19 0.20 0.21 0.22 0.20 0.18 0.19 0.18 0.17 0.16 0.17 0.18 0.16 0.17 0.15 0.16 0.17 0.14 0.13 0.18 0.18 0.19 0.19 0.26 0.25 0.26 0.28 0.25 0.29 0.31 0.27 0.27 0.19 0.19 0.17 0.12 0.10 0.09 0.09 0.09 0.12 0.15 0.19 0.23 0.23 0.23 0.23 0.22 0.22 0.21 0.18 0.19 0.16 0.18 0.19 0.16 0.16 0.21 0.27 0.28 0.27 0.28 0.28 0.29 0.31 0.32 0.33 0.33 0.32 0.32 0.33 0.34 0.35 0.35
0.16 0.09 0.17 0.19 0.23 0.24 0.26 0.29 0.24 0.19 0.17 0.17 0.15 0.18 0.19 0.17 0.21 0.23 0.21 0.18 0.20 0.19 0.19 0.18 0.19 0.19 0.17 0.17 0.15 0.16 0.16 0.21 0.17 0.17 0.19 0.18 0.21 0.24 0.25 0.27 0.27 0.27 0.29 0.30 0.30 0.28 0.21 0.23 0.20 0.18 0.16 0.14 0.16 0.17 0.19 0.20 0.19 0.16 0.19 0.20 0.20 0.22 0.23 0.22 0.21 0.18 0.16 0.18 0.17 0.18 0.18 0.20 0.22 0.24 0.25 0.25 0.26 0.26 0.28 0.30 0.31 0.32 0.33 0.33 0.34 0.34 0.35 0.36
0.23 0.13 0.16 0.12 0.18 0.20 0.19 0.22 0.21 0.20 0.15 0.21 0.14 0.19 0.16 0.17 0.18 0.19 0.23 0.16 0.20 0.19 0.19 0.19 0.19 0.17 0.18 0.18 0.18 0.18 0.20 0.19 0.23 0.21 0.20 0.20 0.22 0.24 0.27 0.27 0.28 0.29 0.31 0.29 0.31 0.27 0.23 0.19 0.21 0.21 0.20 0.21 0.22 0.21 0.22 0.22 0.19 0.19 0.18 0.18 0.19 0.19 0.19 0.18 0.16 0.15 0.18 0.16 0.13 0.16 0.19 0.16 0.17 0.22 0.23 0.23 0.25 0.26 0.28 0.30 0.31 0.32 0.33 0.33 0.34 0.35 0.35 0.35
0.14 0.21 0.24 0.26 0.15 0.13 0.15 0.17 0.21 0.20 0.21 0.20 0.16 0.20 0.16 0.15 0.15 0.13 0.19 0.20 0.21 0.21 0.17 0.20 0.20 0.20 0.20 0.19 0.19 0.17 0.19 0.19 0.20 0.19 0.23 0.23 0.22 0.24 0.24 0.27 0.26 0.29 0.29 0.27 0.30 0.26 0.23 0.19 0.22 0.22 0.21 0.22 0.23 0.23 0.24 0.23 0.22 0.21 0.20 0.19 0.18 0.19 0.19 0.17 0.16 0.18 0.17 0.14 0.12 0.14 0.17 0.15 0.17 0.19 0.22 0.23 0.26 0.27 0.29 0.30 0.32 0.34 0.36 0.36 0.36 0.34 0.33 0.32
0.23 0.25 0.25 0.31 0.18 0.21 0.19 0.21 0.22 0.19 0.18 0.21 0.19 0.18 0.15 0.15 0.14 0.16 0.17 0.18 0.19 0.19 0.21 0.16 0.19 0.21 0.21 0.22 0.20 0.18 0.20 0.17 0.18 0.23 0.22 0.22 0.22 0.23 0.22 0.24 0.30 0.30 0.28 0.26 0.26 0.28 0.24 0.21 0.23 0.23 0.21 0.22 0.23 0.23 0.23 0.22 0.22 0.22 0.21 0.21 0.21 0.20 0.20 0.19 0.18 0.19 0.18 0.17 0.17 0.17 0.18 0.17 0.18 0.20 0.21 0.23 0.27 0.29 0.32 0.35 0.35 0.34 0.32 0.34 0.33 0.32 0.32 0.32
0.19 0.19 0.18 0.26 0.24 0.23 0.23 0.21 0.19 0.18 0.15 0.20 0.16 0.18 0.17 0.17 0.16 0.19 0.21 0.19 0.17 0.19 0.24 0.19 0.20 0.21 0.22 0.23 0.22 0.20 0.22 0.23 0.22 0.20 0.25 0.24 0.23 0.25 0.24 0.24 0.24 0.28 0.27 0.24 0.25 0.26 0.23 0.19 0.25 0.22 0.19 0.18 0.21 0.23 0.23 0.23 0.22 0.20 0.21 0.22 0.23 0.22 0.22 0.21 0.21 0.20 0.21 0.19 0.19 0.19 0.19 0.18 0.22 0.24 0.24 0.27 0.28 0.30 0.31 0.29 0.30 0.31 0.32 0.32 0.31 0.31 0.31 0.31
0.31 0.33 0.31 0.21 0.16 0.20 0.21 0.20 0.19 0.19 0.17 0.20 0.18 0.21 0.20 0.20 0.19 0.22 0.22 0.25 0.22 0.20 0.22 0.20 0.22 0.23 0.24 0.23 0.23 0.23 0.26 0.26 0.26 0.25 0.27 0.26 0.23 0.27 0.24 0.24 0.27 0.23 0.24 0.23 0.24 0.24 0.24 0.20 0.22 0.19 0.16 0.14 0.18 0.19 0.20 0.22 0.22 0.20 0.19 0.21 0.21 0.21 0.19 0.19 0.19 0.20 0.19 0.18 0.19 0.19 0.17 0.17 0.20 0.25 0.26 0.28 0.29 0.28 0.27 0.28 0.28 0.29 0.30 0.30 0.30 0.30 0.30 0.31
0.36 0.39 0.37 0.30 0.18 0.23 0.19 0.21 0.21 0.19 0.16 0.22 0.22 0.23 0.22 0.22 0.24 0.24 0.20 0.26 0.25 0.26 0.26 0.25 0.26 0.24 0.24 0.24 0.24 0.26 0.29 0.30 0.29 0.29 0.30 0.30 0.30 0.29 0.29 0.28 0.27 0.24 0.22 0.21 0.23 0.20 0.20 0.19 0.17 0.17 0.14 0.12 0.16 0.16 0.16 0.17 0.17 0.15 0.15 0.19 0.21 0.21 0.22 0.22 0.23 0.23 0.22 0.22 0.19 0.17 0.16 0.19 0.21 0.23 0.23 0.26 0.28 0.28 0.27 0.27 0.27 0.28 0.30 0.30 0.30 0.29 0.29 0.29
Wind_Speed
14 14 14 14 14 14 14 14 14 15 15 15 14 14 14 14 14 14 13 13 13 13 13 13 14 14 14 15 15 16 16 16 16 16 17 17 16 17 17 16 16 17 17 16 15 15 15 15 15 15 15 15 15 15 15 16 16 15 15 15 15 15 15 15 15 14 14 14 16 15 13 14 15 15 17 16 15 16 15 15 15 15 14 14 14 13 13 13
14 14 14 13 13 13 13 14 14 14 14 14 13 13 13 13 13 12 12 12 12 12 12 12 13 13 14 14 14 15 15 15 15 16 17 16 16 16 17 16 15 15 15 15 15 14 14 14 15 14 14 14 14 14 15 15 15 15 14 15 15 15 15 15 14 14 13 14 15 15 14 13 14 14 16 16 16 16 14 14 14 13 12 13 13 12 13 12
13 13 13 13 13 13 13 13 13 13 13 13 12 12 12 12 12 11 11 11 11 11 11 11 12 12 13 13 13 13 13 13 13 14 14 14 15 16 16 16 15 15 14 14 14 13 13 14 14 13 13 13 14 14 14 14 15 14 14 14 15 15 15 15 15 15 15 14 14 14 14 12 13 14 14 15 15 15 15 15 14 14 14 13 13 13 13 12
12 12 12 12 12 12 12 12 12 12 12 12 12 11 11 11 10 10 10 10 10 10 10 10 11 11 11 12 12 12 12 11 11 12 12 11 13 14 14 15 15 14 13 13 12 12 12 12 12 12 12 13 13 13 14 14 14 14 13 14 15 14 14 15 15 15 15 14 14 14 13 11 12 12 13 13 13 14 16 17 16 15 14 13 13 13 13 13
11 11 11 11 11 11 11 11 11 11 11 11 11 10 10 10 10 9 9 9 9 9 10 10 10 10 10 11 10 10 9 8 9 11 10 10 10 12 13 13 14 13 12 12 12 11 11 11 11 11 11 12 12 12 14 15 13 13 14 14 15 13 13 15 14 14 14 13 13 13 11 11 11 11 13 13 13 14 15 16 16 15 15 14 14 14 13 13
11 10 10 10 10 10 10 10 10 11 10 10 10 10 9 9 9 9 9 9 9 9 9 9 9 9 10 10 8 8 8 7 9 9 9 9 9 10 11 12 12 12 12 11 11 10 11 11 11 11 11 11 12 12 13 14 13 13 13 13 14 14 13 14 13 13 13 12 12 12 11 11 10 11 14 14 13 13 14 14 14 15 15 14 14 14 14 14
10 9 9 10 10 10 10 10 10 10 10 10 9 9 9 9 9 8 9 8 8 8 8 8 9 9 9 8 7 7 7 8 8 8 8 7 8 9 10 11 11 11 11 11 10 10 10 10 10 11 10 11 12 12 12 12 11 12 11 12 13 13 14 14 13 13 13 13 14 12 11 11 11 12 14 14 14 14 13 13 14 14 14 14 14 14 14 14
9 9 9 9 9 9 9 9 9 9 9 9 9 9 9 8 8 8 8 8 8 8 8 8 8 8 8 7 6 6 7 8 8 7 7 6 7 8 9 10 11 11 11 11 10 10 10 10 10 11 10 11 11 11 11 11 11 11 12 12 12 13 14 15 14 14 13 13 13 12 11 12 12 12 13 15 15 13 12 12 13 14 14 14 15 15 14 14
8 8 8 8 8 9 9 9 9 9 9 9 8 8 8 8 8 8 8 8 8 7 7 7 8 7 7 6 5 5 6 6 6 6 5 5 6 7 9 9 10 10 10 10 10 10 10 10 10 11 11 11 11 11 11 11 11 12 13 12 12 13 14 14 14 13 12 12 11 11 11 10 11 11 13 15 15 13 12 13 14 14 15 15 15 15 14 14
8 8 8 8 8 8 8 8 8 8 8 8 8 8 8 8 8 8 8 8 7 7 7 7 7 7 6 6 5 5 5 5 5 4 4 4 5 6 7 8 9 10 10 10 10 10 10 10 10 10 10 10 11 11 10 10 11 11 12 13 13 14 14 13 13 12 11 11 11 11 11 10 10 11 13 14 14 14 13 13 14 15 15 15 15 15 14 14
8 8 8 8 8 8 8 8 8 8 8 8 8 8 7 7 7 7 7 7 7 7 7 7 7 6 6 6 5 5 5 5 4 3 4 4 4 5 6 7 8 9 10 10 11 10 9 10 9 8 9 10 10 11 11 11 11 11 11 11 12 13 13 12 12 12 10 10 11 11 10 10 10 11 12 14 14 14 14 14 15 15 15 15 15 14 14 14
8 8 8 8 8 8 8 8 8 7 8 8 8 7 7 7 7 7 7 7 7 7 7 6 6 6 6 6 6 7 6 5 4 3 4 4 4 5 6 6 7 8 9 9 10 11 10 10 9 9 10 10 9 9 10 10 10 10 9 10 11 10 9 10 11 11 10 10 11 11 11 11 12 12 13 13 14 14 14 15 15 15 15 15 15 15 14 14
8 8 8 8 8 8 8 8 7 8 8 8 8 8 7 7 6 6 6 6 7 7 6 6 6 6 6 6 7 7 6 5 4 4 4 4 5 5 6 7 7 8 9 9 9 9 10 10 10 10 10 10 10 9 9 9 10 10 8 8 10 8 8 10 10 10 11 11 11 11 13 14 14 14 13 13 14 14 13 14 15 15 15 15 16 15 15 15
8 8 8 8 8 8 8 8 8 8 8 8 8 8 8 7 7 6 6 6 6 6 6 6 5 5 6 6 6 6 7 6 5 5 5 5 6 6 6 7 7 8 8 8 8 8 8 10 9 10 10 10 11 10 9 8 8 9 8 8 8 8 10 11 11 11 12 12 11 11 14 15 15 15 13 13 14 15 14 15 15 15 16 16 17 16 16 16
8 8 8 8 8 8 8 8 8 8 8 9 9 9 8 8 7 6 6 6 6 6 6 5 5 5 6 7 6 6 7 6 6 6 6 7 7 7 7 7 8 8 8 8 8 7 7 8 8 9 10 10 9 9 9 9 8 8 8 8 8 8 10 11 10 11 12 13 12 11 14 15 15 15 14 13 14 15 15 15 15 15 16 17 18 17 17 16
9 9 8 8 8 8 8 8 9 9 9 9 9 9 9 8 7 6 6 6 6 6 5 5 6 5 6 6 6 6 6 7 7 7 7 8 8 8 7 7 7 7 8 8 8 8 8 7 8 9 9 9 8 8 8 8 8 8 7 8 8 7 9 10 10 10 12 14 13 13 15 15 15 15 15 14 14 14 14 15 16 16 16 18 18 18 17 17
9 9 9 9 9 9 9 9 9 9 9 9 10 9 9 8 7 6 6 6 6 6 6 6 6 6 6 6 6 5 6 7 7 7 8 9 9 8 7 7 8 7 8 8 8 8 8 8 8 9 8 8 8 8 8 9 9 9 8 7 8 8 8 9 10 10 10 12 14 14 15 17 16 16 15 14 13 13 13 14 15 15 16 17 18 18 18 17
9 9 9 9 9 9 9 9 9 9 9 9 9 9 8 7 6 6 6 6 6 6 6 7 6 6 6 6 6 6 7 7 8 7 8 9 9 9 8 8 8 8 8 8 8 8 9 9 8 8 8 8 8 7 9 11 10 10 9 8 8 9 9 10 11 11 9 11 13 14 15 17 17 16 15 14 14 14 14 14 13 14 15 16 18 18 18 17
10 10 10 10 10 10 9 9 9 9 10 9 9 7 7 7 7 7 7 7 8 7 7 7 7 6 7 7 7 7 7 7 7 7 8 8 8 9 9 9 9 9 8 9 9 9 9 9 8 8 9 10 10 9 11 12 11 10 10 9 9 9 10 11 12 12 11 10 12 13 15 16 16 16 16 14 14 15 15 13 13 14 15 16 17 18 18 18
10 10 10 10 10 10 10 9 9 9 9 9 8 7 7 8 7 8 8 9 9 9 9 9 8 8 9 9 8 7 7 6 7 7 8 8 8 8 9 10 9 9 9 11 11 10 9 9 10 11 12 12 12 11 11 11 10 9 9 8 10 10 11 12 12 13 12 11 11 12 14 16 16 17 17 15 14 15 15 14 14 14 14 16 17 18 18 18
10 10 10 10 10 10 9 9 9 9 9 8 8 7 7 7 7 8 10 10 10 10 10 10 9 10 10 9 8 7 7 7 7 7 8 8 8 8 9 9 9 10 11 11 11 10 9 10 12 13 13 12 12 11 10 9 9 9 10 9 10 11 12 13 12 12 12 11 12 11 12 15 16 16 15 14 13 15 16 16 15 15 15 15 17 18 18 18
10 10 10 10 10 9 9 9 9 9 8 8 7 7 7 8 8 9 9 9 11 10 10 10 9 10 10 10 9 8 7 7 8 8 8 8 8 8 9 8 8 11 11 10 11 11 10 12 14 14 12 10 9 10 9 9 10 10 11 10 11 12 12 13 13 13 12 12 13 12 11 14 15 15 15 15 14 15 17 17 17 17 16 16 17 18 19 19
10 10 10 9 9 9 8 8 8 8 8 7 7 7 7 9 9 9 8 8 10 9 9 9 9 10 10 9 9 8 8 8 9 10 9 8 9 9 8 7 8 10 10 9 10 10 11 13 13 11 10 10 10 10 10 10 11 11 11 11 12 12 12 13 14 14 13 12 13 12 12 14 14 13 14 15 15 15 16 17 17 17 17 18 18 19 19 20
10 10 10 10 9 9 8 8 7 8 7 7 7 7 8 9 9 9 8 7 8 9 9 9 8 9 9 9 8 7 8 9 9 10 10 9 9 9 9 8 8 9 10 10 9 10 12 13 12 10 10 11 11 11 10 11 12 13 12 12 12 13 13 14 14 14 13 13 12 11 13 15 14 13 14 14 14 14 15 16 17 17 18 19 18 19 21 22
11 11 10 10 9 9 9 8 8 7 7 7 7 8 9 9 10 8 7 6 7 8 7 7 7 8 8 7 8 8 7 8 9 9 9 9 9 8 9 9 8 10 11 10 9 10 13 13 11 10 10 11 11 12 12 12 12 13 13 14 13 13 13 13 13 13 13 14 14 12 13 15 14 14 15 14 14 14 14 15 17 17 18 19 20 21 22 22
11 11 10 10 10 10 9 8 8 8 7 7 8 9 10 10 9 7 6 5 6 7 6 6 6 7 7 7 8 8 6 7 9 9 9 9 9 8 8 8 8 9 10 9 9 11 12 12 10 10 10 10 11 13 13 12 11 12 14 13 12 11 12 12 13 12 13 15 15 13 14 16 15 15 16 15 15 16 16 17 18 18 18 20 22 22 23 23
11 11 11 10 10 10 9 9 9 8 8 8 9 10 10 10 8 6 5 4 5 7 6 6 6 6 7 6 7 6 6 8 8 8 9 9 9 7 8 9 8 9 9 9 10 11 12 12 10 10 10 10 11 12 13 11 10 13 14 12 11 11 12 13 12 13 14 15 15 14 14 15 16 16 16 15 16 17 18 19 19 19 19 21 22 23 24 24
11 11 10 10 10 10 10 9 9 9 8 9 10 10 10 8 6 5 4 4 7 7 6 7 7 6 6 6 6 6 6 7 6 7 9 8 9 8 8 9 8 9 9 8 11 12 12 13 13 11 10 10 12 12 12 11 11 14 13 11 12 12 13 13 12 13 14 14 15 15 14 15 16 17 16 15 16 17 18 19 20 20 20 21 23 24 25 25
11 10 10 10 10 9 9 9 9 9 9 10 10 10 9 7 5 4 3 4 6 6 6 7 6 7 7 6 6 6 6 6 5 7 7 7 8 7 7 9 8 8 9 8 11 12 12 14 14 12 11 12 13 12 12 11 11 13 11 10 11 12 12 13 12 13 13 13 15 16 15 14 16 17 16 15 15 17 18 18 18 19 20 21 23 24 24 24
11 10 10 9 9 9 9 9 10 10 10 10 10 9 7 5 5 4 4 5 5 5 6 6 6 6 5 5 6 7 6 7 7 7 7 7 8 7 7 9 7 8 10 10 11 12 12 12 13 13 13 13 11 11 11 11 11 12 10 10 11 12 13 13 13 12 12 13 16 16 14 13 14 16 15 14 14 15 16 16 17 18 18 19 20 20 20 20
11 11 10 9 9 9 9 9 10 10 10 10 9 8 6 5 4 3 5 6 5 5 5 5 6 5 4 5 6 6 6 7 7 7 7 7 8 7 7 8 8 8 10 10 10 11 11 11 12 13 13 11 10 10 11 11 11 11 11 11 11 13 12 11 12 11 11 13 15 14 12 11 13 14 13 14 14 14 15 15 16 17 17 17 16 15 15 16
11 11 10 9 8 8 9 9 9 9 9 9 8 7 6 6 5 5 6 6 5 5 5 5 6 4 4 4 5 6 6 6 6 6 7 7 8 8 8 9 9 9 10 10 10 10 11 11 11 11 12 11 10 11 12 11 11 11 12 11 11 12 11 11 12 11 12 14 13 12 11 11 14 14 14 15 15 14 14 14 15 15 16 14 12 12 12 12
11 11 9 9 8 8 8 8 8 9 9 8 8 7 5 5 7 7 6 5 5 6 6 6 6 5 4 4 4 6 6 5 6 6 7 7 8 9 9 9 9 10 11 11 11 11 11 11 10 10 11 11 10 11 12 12 12 12 13 12 11 10 10 12 12 11 12 13 12 12 11 12 14 14 14 15 15 15 14 14 14 14 15 12 10 11 10 10
11 10 9 9 9 9 9 9 9 9 9 8 7 7 7 7 8 7 7 7 7 6 6 6 6 6 4 4 5 6 5 6 6 6 7 8 8 9 10 9 9 9 10 11 11 11 10 11 10 9 10 10 10 11 11 11 11 12 12 11 12 11 11 12 12 11 12 12 11 12 11 11 12 12 13 14 14 14 12 13 14 13 14 11 8 9 9 9
11 9 10 10 10 10 10 10 10 9 8 8 7 7 8 9 9 8 8 8 7 7 7 6 6 6 6 6 7 6 5 7 7 6 7 8 8 9 9 10 10 8 8 10 11 10 10 11 11 10 10 10 10 11 10 10 11 12 12 11 13 13 11 12 12 12 12 11 12 12 12 12 12 12 13 13 13 13 12 13 12 12 13 10 8 9 8 8
10 10 10 10 10 10 10 10 10 9 9 8 7 8 10 10 9 9 9 8 8 7 8 7 6 6 7 8 8 8 7 8 8 7 8 8 8 9 9 10 10 8 8 10 10 10 10 11 12 11 11 10 11 11 10 11 12 12 12 12 13 13 10 11 12 11 10 11 13 13 13 13 12 12 12 12 13 13 13 13 12 12 12 9 9 10 9 8
11 10 10 10 10 10 10 10 10 10 9 8 8 10 11 10 10 10 9 9 9 8 7 8 8 8 8 9 9 10 9 9 9 9 9 9 9 9 10 10 10 10 10 10 11 11 11 13 13 11 11 12 12 11 11 11 11 11 13 14 13 12 11 11 12 11 10 12 14 13 13 13 12 12 12 12 13 13 13 14 12 12 11 10 10 10 10 10
12 11 10 10 10 10 10 10 10 10 9 9 9 11 11 10 11 11 10 10 10 8 8 9 9 9 9 10 11 12 11 11 11 10 10 10 9 10 10 10 11 11 11 11 11 12 12 14 15 12 12 13 13 11 12 12 12 12 13 14 12 12 13 12 12 12 11 12 13 13 13 13 13 13 13 14 14 13 14 14 12 11 11 10 10 10 10 10
12 11 11 11 11 11 11 11 10 10 10 10 11 11 11 12 12 11 10 11 11 10 10 11 10 10 10 11 12 12 12 11 11 11 11 11 11 11 11 12 12 13 12 11 11 12 12 12 14 14 13 14 13 12 13 14 14 13 14 14 14 13 13 13 13 13 12 13 13 13 13 13 14 15 14 14 15 15 14 13 13 13 12 11 10 9 9 9
13 12 12 12 12 12 12 11 11 10 10 11 12 12 12 12 12 12 11 11 12 11 12 12 11 12 12 12 12 13 12 12 12 12 12 12 12 13 13 13 14 15 14 12 12 13 13 13 15 15 15 14 14 14 15 15 14 14 14 15 15 14 14 14 14 14 13 13 14 14 14 15 15 15 14 15 16 16 15 14 14 14 13 12 11 10 9 9
13 13 14 14 13 13 12 11 11 11 11 12 13 13 13 13 13 14 13 12 12 13 13 13 13 13 13 13 14 14 13 13 13 13 13 13 13 14 14 15 16 16 15 14 14 15 14 14 15 16 16 15 16 16 15 15 15 15 15 16 16 15 15 14 15 16 15 14 15 15 16 17 16 15 16 16 17 17 16 16 16 15 14 13 12 12 11 11
13 14 15 15 15 14 13 12 13 12 12 13 13 14 15 14 14 15 15 14 14 14 14 14 14 14 14 15 15 15 14 14 14 14 14 14 13 14 16 17 18 17 16 16 17 17 16 15 16 18 18 18 19 18 16 16 16 15 16 17 16 16 16 15 16 17 16 16 16 15 16 18 18 17 17 17 17 18 17 17 16 16 16 15 14 14 13 12
15 16 16 16 16 15 13 14 14 13 14 15 15 15 16 15 15 16 16 16 16 16 16 15 16 16 16 16 16 16 16 16 16 15 15 15 15 17 18 18 18 17 16 17 18 17 17 16 17 19 19 19 20 19 17 17 16 16 18 18 17 18 18 18 19 18 18 19 18 17 18 20 19 19 18 18 18 18 17 17 17 17 17 16 15 15 14 14
16 17 17 17 17 16 15 16 16 15 15 16 15 16 17 17 17 17 17 17 17 17 17 17 17 17 17 17 16 17 17 17 16 16 16 16 17 18 18 18 17 17 17 17 18 18 18 17 17 17 18 19 19 19 19 19 18 18 19 19 18 18 18 19 20 19 19 21 20 19 21 21 21 20 19 19 18 17 17 18 18 17 17 17 17 17 17 16
16 16 17 16 16 15 15 17 16 16 17 16 16 17 17 18 18 18 18 18 18 18 18 18 19 18 18 17 17 17 18 18 18 18 17 17 18 19 19 19 18 18 18 18 18 19 19 18 18 17 18 19 19 19 19 19 19 19 20 20 19 18 18 20 20 19 21 22 21 21 22 22 22 22 21 20 19 18 19 19 19 19 19 18 18 19 19 18
14 15 16 16 15 14 15 16 16 16 17 17 18 18 18 18 19 19 18 18 18 18 18 19 19 18 18 18 18 19 19 19 19 18 18 19 19 20 20 20 18 19 19 18 18 18 18 19 20 19 20 20 20 21 20 19 20 20 21 21 22 20 20 20 20 21 22 22 23 24 22 21 24 24 23 23 22 22 22 21 20 21 21 21 21 21 20 20
13 14 15 15 15 14 14 15 16 16 17 17 18 18 18 18 19 19 18 18 19 18 18 19 19 19 19 19 19 20 20 20 20 19 19 20 20 20 21 20 19 19 19 18 19 18 18 20 21 20 21 22 22 22 22 20 22 22 21 23 24 22 21 21 23 24 23 22 26 27 23 23 25 25 25 26 25 25 25 24 23 23 23 23 22 22 22 22
14 14 14 15 16 15 15 16 17 17 17 17 18 18 18 18 19 19 19 19 18 18 18 19 19 19 20 20 19 20 20 20 21 20 20 20 20 20 20 20 19 19 18 18 19 18 18 21 21 20 22 23 23 23 22 22 23 23 22 24 25 24 23 24 25 25 23 24 27 26 24 25 27 26 26 27 27 26 26 25 25 24 24 23 23 23 23 24
14 14 15 15 16 17 17 18 18 17 17 18 18 18 18 18 19 19 20 19 19 19 18 19 20 21 20 19 19 20 21 21 21 21 21 20 21 20 20 20 21 20 19 19 20 19 20 22 22 21 23 24 23 23 23 23 24 24 25 25 25 25 25 25 26 25 24 27 28 26 25 27 27 26 27 27 27 27 27 26 26 25 24 25 24 24 25 25
14 14 16 16 16 17 17 18 17 17 17 18 18 18 18 18 18 20 20 19 19 20 19 19 21 21 20 19 19 20 21 21 20 21 21 20 21 21 21 22 22 22 21 21 22 21 21 23 22 22 24 26 24 24 24 23 24 25 26 26 25 25 26 26 26 25 25 28 28 26 28 29 28 27 27 26 26 27 27 27 27 26 26 26 26 26 26 26
14 15 15 15 16 17 17 17 17 16 17 17 18 18 18 18 19 19 20 19 18 20 21 20 21 21 20 20 20 21 23 21 21 22 21 21 22 22 22 22 22 22 23 22 22 22 22 23 23 22 25 26 24 25 26 25 26 28 29 27 25 25 26 26 26 25 26 27 28 27 29 30 28 26 26 26 25 26 27 27 27 26 26 26 26 26 26 27
14 15 15 15 16 17 17 17 17 16 17 18 18 19 19 19 19 19 19 19 18 18 20 21 20 20 20 20 21 23 24 24 23 23 23 23 23 23 23 23 22 22 22 22 22 23 22 23 23 22 24 26 24 25 26 25 26 30 29 27 27 27 27 27 26 26 26 26 26 28 28 27 26 25 25 25 26 26 26 26 26 26 26 26 26 26 27 28
Wind_Direction
289 290 290 290 289 291 292 293 294 295 295 293 290 288 286 285 282 279 277 276 275 275 275 275 275 275 274 274 274 274 275 272 269 265 260 258 256 251 247 246 243 239 240 242 243 243 246 245 242 242 240 241 244 243 243 243 241 243 243 244 247 244 245 242 238 243 249 257 257 261 262 242 241 242 234 234 230 225 233 240 238 244 250 242 238 226 219 226
290 290 291 291 291 293 294 295 296 296 296 294 292 289 287 285 282 279 277 275 275 274 274 275 275 275 275 275 275 276 275 271 269 264 260 258 254 249 243 240 237 235 237 239 240 239 241 243 241 240 239 239 243 242 242 242 239 241 242 244 245 242 243 238 235 246 251 257 261 260 259 244 238 241 236 232 231 229 233 241 239 238 241 238 234 221 218 224
291 290 291 292 293 294 296 296 297 298 298 296 293 291 288 284 281 278 276 275 274 275 275 276 276 276 276 276 276 277 275 271 267 262 261 261 253 245 239 235 234 234 235 237 237 235 235 237 237 237 237 239 241 241 242 241 240 241 242 245 246 241 242 239 238 248 253 258 262 259 256 243 236 240 236 229 230 232 231 233 234 233 233 232 228 219 217 220
291 291 291 292 293 295 297 298 299 300 300 297 295 292 288 284 282 278 277 275 275 276 276 277 277 278 278 278 279 277 273 269 263 260 262 263 252 240 234 231 231 232 233 233 233 232 233 234 235 235 236 239 242 242 241 240 241 242 240 241 243 239 241 241 240 250 256 257 257 255 253 240 235 237 227 218 224 236 234 229 229 228 224 222 220 219 217 220
292 291 291 292 294 295 297 299 300 302 302 299 297 294 290 286 283 280 279 276 275 276 277 278 280 281 280 281 280 273 270 267 262 262 264 264 249 233 229 228 227 229 228 228 229 231 233 233 234 236 237 239 241 241 241 240 239 243 243 240 241 237 239 243 244 249 253 256 256 254 247 234 235 233 218 215 222 231 235 231 229 223 217 215 214 217 220 225
292 290 290 291 293 295 297 300 302 304 303 300 298 295 292 288 285 283 280 277 275 275 276 278 280 283 284 284 277 267 265 265 266 267 266 262 243 228 225 225 224 225 225 225 227 230 232 232 232 234 236 239 238 237 241 243 240 244 247 244 243 237 236 244 245 245 250 257 255 250 248 236 230 231 223 225 229 234 240 232 226 224 218 215 213 217 223 227
292 290 290 292 293 294 297 300 303 305 305 302 298 295 292 289 286 284 280 277 275 274 276 277 280 283 287 284 271 266 265 264 271 272 267 258 236 224 221 222 221 222 223 222 224 227 229 228 228 229 232 239 237 236 241 244 239 238 244 245 245 238 234 244 247 247 249 252 251 248 251 237 223 228 229 233 236 242 246 230 223 225 220 217 217 221 225 226
292 291 290 292 294 295 297 300 303 306 307 304 298 294 291 288 285 283 281 278 274 275 275 276 279 282 286 279 270 274 268 265 275 276 267 252 234 222 219 222 221 222 221 219 220 221 224 223 227 229 232 237 234 235 240 242 240 236 237 242 244 237 236 246 250 249 246 246 249 246 247 238 229 231 229 233 240 244 241 228 224 222 221 222 221 223 226 229
292 291 291 293 294 296 297 300 303 306 308 307 303 297 291 287 284 281 280 277 275 275 275 276 278 281 280 272 271 275 265 267 280 275 260 247 237 224 222 225 221 219 217 218 216 216 222 224 229 232 233 236 232 236 240 237 239 234 234 243 245 241 244 249 248 245 240 240 239 235 241 241 237 237 233 235 241 240 234 227 224 221 221 224 225 227 230 233
291 290 291 293 295 298 300 301 303 305 308 310 308 304 296 289 283 280 278 275 274 273 274 275 277 278 272 266 268 267 262 275 285 270 246 236 231 222 221 221 216 213 212 213 211 212 220 223 229 233 231 233 231 235 235 229 234 235 239 247 247 246 248 246 243 241 235 233 228 226 236 240 241 241 239 241 240 235 229 225 225 222 222 224 228 231 233 235
289 290 290 292 296 300 302 303 304 305 308 310 311 309 303 294 285 281 279 275 272 272 272 273 277 275 266 263 261 258 263 275 282 263 233 226 220 215 214 211 206 205 204 207 210 216 223 223 229 234 231 233 235 236 233 230 237 243 247 253 254 252 249 242 241 240 231 230 228 224 235 246 248 245 244 243 235 230 225 224 226 224 225 226 228 230 233 233
290 289 289 291 295 299 302 303 305 305 307 310 311 310 308 301 291 284 281 276 271 269 269 270 273 268 264 264 257 253 261 265 265 252 227 222 221 215 208 204 201 200 202 206 217 225 228 229 233 237 236 235 237 237 235 239 242 245 246 250 260 259 250 246 241 237 228 231 233 229 243 254 250 248 251 243 231 230 227 225 227 226 227 227 226 229 231 232
293 291 290 290 292 296 300 302 304 305 305 307 309 309 307 303 297 289 284 278 271 267 266 266 267 263 261 264 258 254 257 253 248 244 231 227 227 222 211 205 206 208 211 215 224 231 233 234 234 238 239 233 234 236 238 244 241 245 244 242 257 257 249 249 242 239 232 235 241 237 246 252 251 255 254 242 231 230 229 229 231 230 230 228 226 229 231 232
295 293 292 292 292 293 296 299 302 303 304 305 306 305 303 299 296 290 285 279 272 267 263 262 263 260 257 257 255 254 255 250 243 241 236 227 227 230 220 210 212 217 223 230 235 241 239 237 236 240 239 232 235 241 246 248 241 245 245 240 249 243 246 251 244 242 236 240 248 243 248 251 254 260 253 241 234 230 231 233 233 232 231 228 226 229 231 233
295 293 293 293 294 293 294 297 298 300 302 303 304 303 299 295 290 286 282 278 273 267 262 260 259 259 263 257 252 253 252 248 247 243 238 229 225 231 225 216 218 221 229 240 241 245 243 236 237 240 240 239 241 244 247 247 245 246 244 246 249 239 247 251 245 243 238 246 253 246 251 254 254 260 251 242 238 233 232 233 232 232 229 227 228 229 232 234
293 292 292 292 293 295 294 295 296 297 298 301 303 300 296 291 285 279 275 273 272 267 262 260 255 254 258 254 250 253 249 247 251 246 237 231 226 227 226 224 227 225 233 244 242 243 242 236 239 241 243 245 242 241 246 249 250 250 242 243 247 244 247 246 247 252 245 248 255 250 251 253 258 263 254 244 240 235 232 232 232 233 230 228 229 231 233 235
290 290 290 291 292 293 294 294 295 295 297 301 302 297 293 291 282 275 272 271 269 266 263 258 255 255 253 251 250 256 257 255 254 246 236 234 231 229 231 234 235 235 240 244 239 236 236 236 242 246 248 249 243 242 246 248 249 251 247 241 244 242 241 244 249 255 254 253 255 255 251 250 257 265 260 251 243 236 234 235 234 235 234 232 231 233 235 236
287 287 289 290 291 292 293 294 294 296 298 302 303 296 290 289 282 275 273 270 268 267 265 258 253 253 251 250 253 259 266 264 256 245 237 236 235 234 238 240 243 250 251 243 239 237 239 243 246 249 256 259 252 243 240 240 237 241 244 242 246 245 242 247 249 251 258 257 255 257 253 250 256 264 262 255 246 240 239 239 239 239 238 237 235 234 235 236
287 287 288 289 290 291 292 292 293 296 299 302 304 295 287 290 284 275 274 274 267 262 261 254 249 249 248 252 258 263 267 263 253 244 238 236 235 236 241 245 249 253 250 245 246 246 244 248 252 253 257 257 249 238 234 235 232 234 240 238 241 248 250 251 253 256 257 255 255 255 252 252 255 258 257 255 249 243 244 246 246 246 244 240 237 236 236 236
288 288 288 289 289 290 290 291 292 295 299 301 299 291 288 293 287 278 281 276 263 257 258 253 248 252 255 257 261 267 269 260 248 242 240 237 233 236 245 249 250 252 249 244 247 250 246 249 251 248 248 248 244 239 237 236 235 235 238 239 242 247 256 258 259 264 260 253 255 252 250 252 251 251 251 252 252 247 248 250 249 249 247 241 237 236 236 237
290 289 289 289 288 288 288 288 290 293 297 297 292 287 284 288 285 282 283 278 265 258 257 254 248 251 256 256 259 268 270 262 253 247 243 238 233 238 250 252 247 251 252 246 246 252 251 250 250 245 244 245 242 238 237 238 240 240 237 240 249 249 254 259 259 266 265 256 257 256 254 253 250 251 250 246 248 249 248 248 248 248 246 243 239 237 237 239
292 291 290 290 289 289 287 286 288 291 294 292 288 285 282 286 286 283 281 277 272 263 254 254 251 251 256 258 258 260 259 259 260 255 243 236 238 242 250 252 244 247 254 252 253 259 258 252 251 248 243 243 243 239 238 241 243 246 244 245 253 255 259 264 263 267 266 258 258 262 261 257 255 256 253 246 244 249 249 246 246 246 244 243 241 239 239 240
291 290 291 290 289 289 287 287 288 289 289 285 284 285 286 292 291 287 282 273 273 269 254 248 247 250 257 260 255 249 248 250 255 255 243 234 242 244 244 250 247 248 255 252 248 253 255 248 246 245 239 240 249 248 242 245 248 248 246 248 255 260 262 263 264 268 266 258 256 258 261 260 259 261 258 252 249 251 253 252 251 249 245 245 244 241 240 240
290 289 288 287 287 286 286 288 288 289 285 280 281 285 290 296 295 290 283 273 271 268 252 241 241 245 252 257 250 244 249 248 247 252 244 234 241 247 247 250 251 253 254 247 240 245 249 246 243 245 246 246 250 252 245 244 252 253 248 246 253 258 258 257 263 269 268 264 260 260 264 262 259 260 258 257 259 257 256 257 257 255 252 250 248 245 242 242
289 287 285 284 283 282 284 284 285 287 282 277 282 288 294 298 296 288 280 274 268 264 251 239 241 242 245 253 249 246 256 255 248 249 244 234 237 248 255 254 253 255 254 248 248 250 252 252 247 247 254 253 250 253 248 242 250 259 253 246 247 252 256 261 268 271 268 268 266 261 261 260 260 259 255 258 265 263 262 261 258 256 255 254 251 249 247 247
288 286 284 281 279 278 279 280 281 283 280 278 284 292 297 297 294 280 269 271 262 257 251 240 243 245 247 255 250 247 260 264 253 247 243 241 242 247 255 258 260 259 253 252 257 255 254 257 254 248 251 254 254 256 252 242 246 256 253 247 248 253 258 262 265 265 263 262 263 259 252 256 262 260 257 261 265 265 266 266 262 258 255 254 253 252 250 250
289 286 283 281 278 276 274 275 277 277 277 280 286 293 295 295 289 270 264 273 259 253 250 245 246 248 250 252 246 241 254 266 262 249 242 243 249 252 253 258 264 263 258 261 267 260 253 258 261 254 252 256 257 258 253 241 242 253 252 246 249 255 257 259 260 262 262 262 266 266 255 257 261 258 260 265 267 268 268 267 267 265 260 257 257 256 254 251
290 287 284 281 279 275 271 272 273 272 274 281 288 291 291 289 280 263 257 258 254 252 248 246 246 250 254 251 242 242 255 267 267 257 250 244 248 255 257 255 255 261 266 266 267 266 257 255 256 253 256 259 254 252 245 238 248 255 251 248 254 257 258 260 262 264 267 266 267 269 262 260 263 261 264 268 266 267 267 265 267 270 271 269 265 263 259 254
291 287 284 280 278 274 271 271 270 268 273 281 287 287 287 282 270 264 256 248 252 252 247 248 249 254 260 254 250 255 264 267 260 259 258 247 249 258 261 257 253 262 273 270 265 270 264 255 252 249 253 256 252 249 241 240 254 255 250 258 267 269 268 268 265 264 267 264 261 265 263 260 264 267 267 266 263 264 266 266 266 271 278 277 271 266 261 256
291 285 282 278 276 273 272 272 268 268 275 281 283 282 280 273 265 264 256 248 251 254 250 249 250 257 262 258 263 266 261 263 263 261 261 255 258 265 262 264 266 266 275 280 272 272 273 264 255 250 250 249 248 250 248 247 253 254 258 268 272 274 273 270 266 261 263 265 262 262 261 258 265 269 263 257 259 263 266 268 269 273 279 276 270 267 262 255
290 284 279 276 275 272 271 271 268 269 274 278 280 276 266 263 260 245 246 247 247 255 258 249 249 263 266 253 262 268 261 268 274 269 267 268 271 273 267 270 277 278 282 286 280 280 285 276 262 256 253 249 250 256 257 258 257 255 260 264 266 272 273 271 268 262 259 264 265 264 260 255 260 265 263 261 263 265 265 266 269 274 278 275 270 271 268 256
290 284 277 272 273 274 271 268 267 269 273 275 274 264 251 255 254 241 248 255 249 250 252 246 248 262 272 261 264 271 267 273 281 274 268 270 271 269 267 265 269 278 282 279 281 289 285 274 269 266 257 248 250 258 263 267 265 259 259 260 263 270 273 270 267 262 258 262 265 263 260 259 260 261 264 267 270 271 269 267 268 271 275 277 274 275 275 260
290 283 273 267 270 275 272 271 272 270 271 271 263 254 247 247 244 240 249 253 246 247 244 244 253 261 268 270 271 275 273 271 279 278 271 272 274 272 273 271 267 272 274 272 280 289 286 283 281 271 261 253 247 253 260 263 261 255 252 254 257 262 268 267 265 265 265 265 265 262 262 266 265 263 266 269 271 275 275 271 270 271 273 279 281 275 272 263
289 279 269 267 269 272 271 273 276 272 270 267 254 249 249 244 241 241 248 250 250 258 254 251 264 272 273 267 266 274 275 271 279 286 283 284 283 280 281 282 278 273 272 273 277 279 279 282 278 266 264 262 254 251 252 254 257 256 251 251 253 253 256 260 259 260 262 264 263 262 263 262 259 263 269 269 271 273 274 272 273 275 275 281 289 281 272 264
285 275 269 270 271 272 271 271 273 272 270 264 253 248 244 243 245 243 246 250 252 261 264 261 264 268 272 270 269 274 270 270 283 292 291 288 281 275 276 279 281 275 271 273 275 274 272 272 273 271 269 267 263 259 253 254 260 260 255 254 256 253 254 260 260 257 258 262 262 259 260 260 259 267 270 269 269 269 270 274 277 280 281 286 292 285 279 271
278 274 273 272 272 274 272 268 269 271 267 260 254 251 244 242 244 239 242 250 251 255 264 270 267 261 267 268 268 277 277 277 286 290 288 286 278 274 273 275 277 273 267 269 271 274 275 274 277 279 277 273 270 264 260 258 258 259 256 253 254 252 251 257 263 267 265 262 262 260 259 263 264 265 267 268 267 268 273 277 279 283 287 290 287 280 278 279
273 272 273 273 272 274 271 267 268 268 264 256 250 249 245 243 241 238 245 254 253 253 259 265 265 260 263 266 267 276 282 283 287 288 286 285 281 280 280 278 276 275 272 271 272 272 271 274 277 276 274 277 276 269 268 265 258 257 257 255 256 259 259 257 261 271 270 262 265 263 256 256 256 257 262 263 262 267 274 276 277 283 288 288 285 278 274 276
272 268 268 271 274 273 269 267 267 265 262 257 252 249 246 245 244 245 252 254 253 257 258 258 261 259 259 264 269 276 282 283 285 287 285 283 280 282 284 280 279 284 281 275 276 277 274 275 278 273 268 274 277 270 269 271 264 257 258 260 260 261 261 259 257 262 263 262 268 268 261 255 251 254 259 256 255 263 270 270 271 277 282 283 282 279 274 271
270 265 264 269 274 273 268 266 265 263 261 257 252 249 246 246 250 253 258 257 253 257 259 258 262 265 262 264 268 275 280 279 280 284 284 279 278 282 286 281 281 288 287 278 278 281 279 276 276 274 269 269 273 267 263 267 268 266 266 267 265 259 256 256 256 255 257 260 265 269 269 261 254 256 256 250 251 256 262 266 268 271 276 279 278 277 274 269
268 264 261 268 275 271 266 266 265 261 259 254 249 248 248 249 253 259 263 261 256 258 261 260 262 267 268 267 270 274 278 276 275 280 280 278 278 280 284 283 280 285 287 284 283 284 283 277 272 275 275 268 266 265 260 258 260 264 265 264 263 261 258 258 259 258 257 258 260 263 268 265 260 256 250 246 248 252 256 263 266 268 272 275 274 272 270 267
267 264 261 268 275 270 265 267 265 260 256 254 252 252 254 253 255 261 265 265 261 260 261 259 260 264 267 269 271 273 276 277 277 278 277 278 279 277 281 284 279 280 284 286 286 284 282 278 273 275 276 269 264 264 260 256 255 257 259 259 258 258 257 258 262 262 260 259 258 258 264 266 262 254 249 248 251 254 258 260 262 265 267 268 269 268 267 266
267 264 263 270 274 268 265 265 265 262 256 254 255 255 257 258 257 260 264 266 266 265 265 264 263 265 266 268 270 270 273 275 276 276 275 275 276 275 281 287 282 278 280 281 280 279 278 278 276 274 271 267 266 266 264 260 259 258 261 262 260 259 256 254 257 260 260 260 260 260 264 265 261 254 253 255 256 258 262 261 259 261 263 263 264 263 263 262
268 266 265 271 273 266 264 265 266 266 260 258 259 256 257 259 259 261 264 266 267 267 268 268 266 267 268 269 270 269 271 273 272 274 275 274 275 276 283 290 286 280 281 281 279 278 277 277 277 276 273 272 272 271 269 267 265 263 265 265 261 260 259 256 257 258 258 257 258 262 266 263 260 258 260 262 261 260 262 261 258 259 261 261 261 261 260 259
269 266 265 272 273 265 261 261 261 262 262 263 264 261 260 259 259 262 264 266 267 266 268 269 268 268 269 270 270 270 271 273 274 276 276 275 276 278 286 292 288 283 283 280 278 278 278 275 275 276 277 276 275 273 272 272 268 264 265 265 262 260 260 260 261 262 261 259 256 259 264 263 260 262 264 265 265 264 264 263 260 259 261 261 261 261 260 260
271 267 266 272 275 266 259 258 257 258 261 264 264 264 264 262 262 264 264 266 269 266 267 270 270 270 271 272 273 274 274 274 275 277 279 278 278 280 286 291 289 285 283 283 282 278 276 274 271 270 269 268 268 268 267 267 266 265 265 265 263 260 258 260 262 261 261 262 258 258 264 265 262 263 265 266 267 265 265 266 264 263 263 262 264 264 263 263
270 268 269 272 274 268 261 262 262 259 260 262 263 263 263 263 266 268 266 266 270 269 269 271 271 271 272 272 272 274 276 276 276 277 278 278 276 277 282 284 286 287 287 290 289 280 276 275 271 265 263 263 264 265 264 263 264 265 265 265 264 263 260 260 260 259 259 261 261 259 262 264 263 262 264 266 266 265 265 266 266 266 265 264 265 266 265 265
270 268 269 269 271 269 265 268 269 265 262 261 261 264 265 266 268 270 269 268 270 271 270 271 271 270 269 270 270 271 274 276 277 276 275 276 275 277 280 279 282 288 288 289 289 281 276 276 272 266 265 265 265 267 268 267 264 262 261 261 263 263 262 259 259 260 259 260 262 261 260 261 261 260 260 263 264 264 264 265 265 266 265 265 265 266 266 266
272 268 268 267 267 265 265 268 269 267 265 263 262 264 267 269 269 269 270 271 271 271 269 270 273 271 268 268 268 270 273 275 276 275 275 276 276 279 281 278 279 286 286 285 285 280 274 274 272 269 269 269 269 269 269 268 267 264 261 260 260 260 259 258 259 260 258 258 263 263 260 260 262 261 260 260 261 261 262 263 264 264 263 263 264 265 266 267
274 270 270 271 267 264 265 268 268 266 267 267 266 266 267 269 270 268 268 270 272 272 269 267 270 272 271 269 267 269 271 271 274 275 273 276 278 278 280 278 277 283 285 282 281 277 274 274 272 270 273 273 271 270 268 266 267 268 265 262 261 260 258 258 260 260 258 260 263 263 261 262 264 262 261 260 260 260 262 263 264 263 262 261 263 265 266 267
275 272 272 272 270 269 270 271 269 267 268 269 268 267 267 267 269 269 268 268 269 271 271 268 268 271 273 271 269 270 269 267 272 274 272 275 279 277 277 277 276 280 284 280 278 277 275 274 273 272 274 273 271 271 269 266 266 267 267 265 264 264 262 262 262 262 261 263 265 263 263 266 266 264 263 263 262 262 262 262 262 261 261 260 261 263 265 266
278 274 274 272 270 272 272 271 270 268 270 271 269 268 269 268 269 269 268 267 267 268 270 269 267 269 274 274 271 272 272 268 268 271 269 272 276 276 277 277 275 279 281 278 276 277 275 274 275 275 274 273 271 270 270 270 270 268 267 265 264 264 264 262 262 261 260 262 265 264 265 267 267 264 262 263 263 262 260 260 260 260 259 259 260 262 265 266
284 279 277 272 270 273 273 271 271 269 268 270 270 269 270 271 272 270 267 269 272 272 272 270 267 268 273 274 274 276 277 273 270 271 271 273 276 277 277 278 277 277 278 276 276 275 273 273 274 273 272 274 273 271 271 274 273 270 267 264 262 262 263 264 264 262 260 261 263 264 265 267 265 261 260 261 261 260 259 259 260 259 259 259 261 264 266 268